Theta_e
345 346 347 346 346 346 347 350 350 350 350 350 350 350 350 350 350 349 349 349 348 345 345 345 346 346 349 346 347 347 347 347 346 346 346 346 345 346 345 345 345 344 345 344 344 345 345 342 340 340 339 338 336 327 326 326 327 330 329 328 330 329
345 346 346 345 344 344 346 348 345 346 346 348 349 349 347 345 348 343 348 346 341 345 342 343 344 348 344 346 345 347 347 347 346 346 346 345 345 345 345 345 345 345 344 344 342 334 340 341 340 338 337 336 327 325 326 326 326 327 328 327 330 332
345 345 345 345 345 345 344 343 341 342 345 347 347 346 343 345 341 341 341 341 342 341 341 342 343 345 344 346 345 347 347 346 346 346 346 346 345 345 345 344 345 345 344 341 334 332 332 335 335 339 336 328 325 325 325 325 325 327 327 329 327 335
344 345 344 344 344 344 343 342 340 341 342 342 342 343 341 341 340 340 341 340 338 340 340 339 347 348 347 343 344 346 346 346 346 346 346 345 345 344 344 345 345 342 339 336 333 332 331 333 332 327 325 325 325 325 326 326 326 327 328 332 330 335
344 344 344 344 344 344 344 344 342 340 341 340 341 340 340 340 339 340 339 339 338 339 339 339 339 340 340 339 339 340 340 339 337 337 343 331 335 337 335 332 334 335 334 334 333 331 330 331 329 325 325 326 326 327 328 328 327 327 328 331 332 335
343 343 343 343 343 344 344 343 342 342 340 341 341 340 339 339 338 338 338 339 339 336 336 336 337 338 337 337 337 336 335 335 332 332 335 332 331 331 328 330 333 334 335 334 332 331 331 330 327 326 326 327 328 329 329 328 328 328 328 329 333 335
340 340 341 342 343 343 341 342 342 342 341 340 341 340 340 338 338 337 337 339 337 335 334 332 336 337 337 336 336 334 333 333 333 333 333 334 331 328 328 329 330 333 334 334 333 330 329 328 328 327 327 328 329 330 330 330 329 328 327 329 333 335
336 338 338 340 341 340 339 340 341 344 341 343 341 339 339 339 337 337 337 337 338 335 334 333 336 337 337 335 334 333 332 331 332 333 332 331 329 328 327 327 328 329 334 334 333 330 329 329 329 330 330 331 331 330 330 330 331 330 328 328 330 334
335 336 337 338 339 337 338 339 340 340 339 344 338 338 338 339 337 336 337 337 337 334 333 334 334 336 336 334 332 332 331 331 331 332 332 329 328 328 326 327 327 329 330 331 330 329 329 329 330 331 332 332 332 330 330 331 331 330 329 328 329 332
334 334 335 337 337 335 336 337 337 339 339 343 337 336 337 338 337 336 336 337 337 335 334 334 334 334 334 332 332 331 331 330 331 331 330 330 327 327 325 326 327 328 330 330 329 329 328 328 329 330 331 332 332 331 331 331 331 330 330 329 328 333
335 337 335 336 335 335 335 336 336 337 340 339 337 336 337 337 336 335 336 336 336 336 335 334 334 333 333 332 331 331 331 330 330 329 330 329 328 328 325 327 328 326 329 330 329 329 328 328 328 330 331 331 331 331 331 332 332 331 331 329 328 329
334 335 335 335 337 334 335 336 336 335 337 337 336 335 335 336 337 335 336 335 335 335 336 334 334 333 333 332 331 330 330 329 330 328 329 328 328 328 326 325 326 327 331 330 328 327 328 328 328 328 328 330 331 331 331 332 332 331 331 330 329 330
335 335 334 334 335 334 334 335 335 335 335 335 335 334 334 336 336 335 335 335 334 335 335 334 334 334 335 332 331 330 329 330 330 329 329 328 328 326 328 328 329 330 329 328 327 327 327 326 326 326 328 328 330 330 331 332 331 331 331 330 328 327
335 334 334 334 335 334 334 335 335 334 335 334 334 333 334 334 335 335 335 335 335 335 335 334 334 333 333 331 331 331 329 329 330 330 330 329 328 328 327 328 328 328 331 328 326 325 325 325 324 325 327 327 328 329 330 331 330 330 329 329 327 327
335 333 336 335 335 334 333 334 334 333 334 334 333 333 333 333 334 335 337 337 335 335 335 334 334 333 332 331 331 330 330 331 332 331 330 330 330 329 329 328 328 326 325 325 324 326 325 325 325 326 326 327 328 329 330 329 329 329 328 326 328 326
332 332 334 335 334 334 334 333 333 335 332 333 333 332 332 333 334 336 338 338 336 335 335 334 334 333 331 330 330 330 330 331 333 333 331 331 331 329 329 328 328 326 325 324 325 323 322 324 324 325 326 326 327 329 328 328 328 328 327 327 327 326
330 331 332 334 334 334 333 332 332 335 335 335 334 333 333 333 334 336 338 338 336 336 335 334 334 333 331 330 330 329 330 332 333 332 330 330 331 330 329 328 325 325 326 324 323 322 322 323 324 325 326 326 325 327 326 326 326 327 328 327 325 325
330 329 331 333 334 334 333 332 333 334 336 335 335 336 335 335 335 336 337 337 337 336 336 334 333 332 331 331 330 331 331 331 330 330 329 330 329 329 329 326 325 324 324 325 323 323 322 324 326 326 325 326 326 325 325 326 327 330 327 326 326 325
327 327 330 332 334 335 334 333 332 333 334 334 335 336 336 335 335 334 335 337 337 336 335 332 332 333 332 332 331 331 331 330 330 329 329 329 328 328 328 325 324 325 326 324 324 323 324 326 326 326 326 327 328 328 327 327 326 326 326 326 327 329
327 329 330 331 334 333 333 331 331 332 332 333 334 334 333 333 334 334 336 336 337 334 332 331 332 331 330 331 330 330 329 330 330 330 329 328 327 327 327 326 325 325 324 325 324 324 325 326 326 327 326 327 328 328 327 326 326 327 326 327 329 328
329 330 330 331 333 332 330 330 331 330 330 332 332 334 333 332 333 335 336 335 334 332 331 331 332 331 330 332 330 329 329 330 330 330 329 329 329 328 328 327 327 325 324 324 325 326 325 327 325 323 324 323 324 327 328 327 325 325 326 325 326 327
330 331 331 332 333 333 333 332 331 330 331 331 332 332 332 333 334 336 336 333 331 332 332 331 331 330 330 331 329 328 328 329 329 329 329 329 329 330 328 327 327 325 326 325 324 327 326 326 322 321 319 318 320 323 325 325 325 326 325 325 325 326
331 332 332 332 333 333 333 333 332 331 332 331 334 334 334 335 337 336 335 334 331 331 330 331 331 331 329 330 329 329 328 328 328 330 328 328 329 328 327 327 327 325 324 325 326 328 326 320 320 323 322 319 316 316 320 322 324 324 325 323 324 326
331 333 333 333 333 333 333 332 330 328 331 332 331 333 334 334 335 335 333 332 332 331 330 330 331 331 331 330 328 328 328 328 328 330 328 328 328 326 325 326 326 326 326 323 324 325 327 320 323 323 316 315 316 316 313 316 320 322 324 324 324 325
330 333 334 333 333 332 332 330 329 329 330 330 331 331 330 330 332 333 333 330 330 330 330 330 331 331 331 329 329 328 328 329 328 329 328 327 326 326 326 327 326 325 325 324 323 325 326 323 323 325 320 316 314 313 313 316 320 320 322 323 324 323
334 334 334 334 333 331 330 328 327 326 325 325 325 326 326 327 329 330 331 330 330 329 329 330 331 331 331 330 328 328 329 329 328 328 328 327 326 326 326 326 327 326 324 325 325 324 323 325 323 323 322 318 318 315 314 318 319 313 320 321 323 324
334 334 335 335 334 332 330 329 328 328 327 326 326 327 329 330 330 332 332 329 329 329 330 329 329 330 330 330 329 328 328 328 329 328 329 327 326 326 327 327 328 326 325 325 325 323 324 323 322 323 322 324 322 317 321 319 315 316 314 317 319 318
335 335 335 335 335 334 331 329 327 327 328 327 327 327 328 329 331 332 331 330 329 329 329 329 329 329 330 331 329 328 328 328 328 328 329 327 326 326 326 328 328 327 326 325 325 324 324 324 322 321 322 322 321 319 322 319 319 318 316 314 314 317
333 332 332 333 333 333 332 330 328 327 326 327 325 326 329 329 329 331 330 329 328 329 329 329 329 329 329 330 331 330 329 328 328 328 329 327 326 326 326 326 327 327 325 324 324 324 325 324 323 321 320 315 317 317 317 315 319 317 312 312 311 313
327 330 330 331 332 332 332 331 328 327 325 324 324 325 329 328 328 330 329 328 328 328 329 329 328 328 328 329 330 331 330 328 327 328 329 326 326 326 325 326 327 327 326 324 324 324 324 324 324 321 321 317 313 313 314 314 314 313 313 311 312 313
326 328 330 331 331 331 332 331 329 328 326 324 324 326 327 327 328 328 328 328 328 327 329 329 328 327 328 329 329 331 329 328 328 329 328 325 325 326 325 325 326 326 326 325 324 323 322 322 323 321 320 320 319 318 317 314 314 314 313 308 310 308
325 327 329 331 332 332 330 330 330 328 326 325 324 325 327 327 327 327 327 327 328 328 328 328 327 326 326 327 329 330 330 328 327 327 327 326 325 326 325 325 324 325 326 325 324 324 322 322 321 321 320 319 319 320 318 318 317 317 315 312 314 310
325 326 325 327 330 330 327 327 327 325 324 325 325 326 327 327 328 328 328 327 327 327 327 327 327 327 326 326 328 328 327 326 325 326 326 325 325 325 325 325 324 324 325 324 324 324 323 322 322 322 322 318 318 319 319 317 319 317 314 313 312 308
322 322 323 324 325 324 325 327 326 326 325 325 325 327 328 328 328 328 328 327 327 328 327 328 328 327 327 327 327 327 327 326 326 326 326 326 325 325 325 325 324 324 324 324 324 323 323 323 322 322 322 320 319 319 317 318 319 317 313 311 309 310
321 322 323 323 324 324 325 327 326 327 327 326 326 327 326 327 328 328 328 327 327 328 328 328 327 327 325 326 326 326 326 325 325 325 325 325 325 325 325 325 324 324 324 323 324 323 322 323 323 321 320 321 320 318 317 318 319 318 315 313 312 310
321 322 323 323 323 324 325 325 325 324 325 327 327 326 324 324 326 328 327 327 326 326 327 326 326 325 324 326 325 326 326 326 325 325 325 325 325 325 325 325 325 325 324 325 323 323 322 322 323 322 321 319 319 319 319 319 319 318 315 313 313 312
319 321 321 322 323 324 325 324 323 324 324 323 324 324 324 324 324 325 325 325 324 324 324 324 325 325 324 324 325 326 326 326 325 325 324 324 324 324 325 325 325 325 325 324 323 323 322 322 323 322 320 320 320 319 319 319 319 318 316 314 313 312
Wind_Speed
7 7 6 5 4 5 7 10 8 10 10 10 10 10 10 12 12 11 10 10 9 6 5 6 8 7 13 8 9 11 11 10 8 7 7 8 7 8 8 10 11 11 10 10 9 11 13 13 13 12 12 12 12 6 5 4 4 4 4 4 3 4
5 6 5 3 2 2 3 6 3 4 4 6 8 9 8 5 7 3 9 6 3 5 5 5 5 9 5 8 9 13 11 10 9 8 7 7 7 7 7 8 10 10 10 10 9 5 6 13 15 13 12 12 7 5 4 4 4 5 5 4 4 7
6 5 5 4 3 3 3 3 2 3 4 6 6 4 3 4 3 3 3 3 3 4 4 4 5 6 6 10 9 12 11 10 9 8 7 8 7 6 6 6 9 9 10 9 5 4 4 5 8 15 12 6 5 5 4 3 3 4 5 4 4 10
5 5 5 4 4 4 3 3 3 3 3 3 3 3 3 3 3 3 4 3 3 3 3 3 10 14 10 6 7 11 11 10 9 8 7 5 7 6 5 5 8 9 6 4 4 5 4 4 6 6 6 5 5 5 5 3 3 3 4 4 4 11
4 5 5 5 5 4 4 4 3 3 3 4 4 3 3 3 3 4 4 4 3 3 4 3 3 3 3 4 4 4 4 4 3 2 5 2 4 3 3 3 3 4 3 3 4 4 5 6 5 6 6 6 5 5 5 3 2 2 3 4 5 10
4 4 4 4 4 4 5 3 3 3 3 3 4 4 4 3 4 4 4 4 4 3 3 3 3 3 3 3 4 4 4 4 3 2 2 2 2 4 3 3 3 4 3 3 5 4 4 7 6 6 6 5 6 5 5 4 3 2 2 3 6 12
4 4 4 4 5 4 4 4 3 3 4 3 4 4 4 4 4 4 4 5 5 4 4 3 4 4 4 3 4 4 4 4 4 2 2 2 1 2 2 2 3 4 3 4 5 4 5 6 6 6 5 5 5 5 5 4 4 4 3 2 5 12
5 5 4 5 5 5 4 5 4 5 5 5 5 5 4 4 4 4 4 4 4 5 5 4 4 5 5 4 4 4 4 4 4 3 2 2 1 0 1 1 2 4 4 4 5 4 5 6 6 6 6 5 5 5 4 4 4 3 3 3 3 8
6 5 4 4 5 5 5 5 5 4 5 5 4 4 4 4 5 4 4 5 5 6 5 5 5 5 4 4 3 4 4 4 4 4 3 2 1 1 0 1 1 5 4 5 4 5 5 5 5 5 6 6 6 5 4 4 3 3 3 3 3 6
7 6 5 5 5 5 6 6 6 6 5 5 4 4 4 5 5 5 5 5 6 6 6 6 5 4 5 4 3 3 4 4 4 3 4 3 2 2 3 1 1 4 5 4 5 5 5 5 5 5 5 7 6 6 4 4 4 4 3 3 3 3
7 6 6 6 6 6 6 6 6 6 6 5 5 5 5 5 5 5 6 6 6 5 5 5 5 5 4 4 4 4 4 3 3 4 4 4 3 4 3 3 3 5 5 4 4 5 5 5 5 5 4 6 6 5 5 4 3 3 4 3 2 3
7 7 6 6 6 6 6 6 6 5 6 6 6 5 5 6 6 6 5 6 5 5 5 5 6 5 5 5 5 4 4 4 4 4 4 3 4 3 4 1 2 3 4 4 4 4 4 6 5 4 4 4 5 5 4 4 4 4 4 3 4 3
8 8 8 8 8 7 6 5 6 6 5 6 6 6 6 7 7 6 6 6 5 5 5 6 6 6 6 6 6 5 4 4 4 4 4 4 3 2 2 4 4 3 4 4 4 4 3 4 5 4 4 4 5 5 4 4 4 4 4 3 4 3
9 10 11 9 7 7 6 5 5 5 5 6 6 6 6 6 6 5 5 5 6 6 6 5 6 5 5 6 6 6 5 5 4 4 4 4 5 4 4 4 5 5 5 6 5 4 5 4 3 3 4 4 4 4 4 4 3 4 4 3 3 3
9 10 10 8 6 6 5 5 5 4 4 5 4 5 4 5 5 5 5 6 6 6 5 5 5 6 6 5 6 5 5 5 4 3 4 4 5 5 5 6 5 5 3 3 3 4 4 5 5 4 4 4 5 4 4 4 3 4 4 3 4 3
8 10 9 8 6 6 6 5 4 4 3 3 3 3 4 5 5 5 6 6 6 6 6 6 6 6 6 5 6 5 4 3 3 4 4 4 5 6 5 6 4 7 6 3 4 3 3 4 4 4 3 4 4 4 5 4 4 4 4 4 3 3
12 13 9 8 8 6 5 4 5 5 5 4 4 3 3 2 3 5 5 6 6 6 6 6 6 6 6 5 3 5 4 1 3 5 4 4 4 4 5 6 3 2 6 6 4 4 4 4 5 4 4 4 3 4 4 4 3 4 4 4 3 3
5 3 6 7 7 7 5 4 4 4 5 5 5 4 3 3 4 5 5 6 6 6 7 6 5 6 5 5 5 5 4 1 2 5 5 5 5 4 4 2 6 2 2 6 5 5 5 4 4 5 4 4 3 3 3 4 3 4 5 4 3 3
2 3 5 6 7 7 6 4 4 4 5 5 5 5 5 5 4 3 4 6 7 7 4 4 4 5 7 7 7 6 4 4 3 4 6 6 5 4 5 2 1 5 3 1 4 4 5 5 5 5 5 4 4 4 3 3 3 3 4 4 4 3
3 4 4 5 6 6 6 6 6 4 5 5 5 5 4 5 3 5 6 5 7 6 4 4 6 2 3 6 6 5 6 5 4 5 6 7 6 6 7 8 4 6 6 4 3 4 5 7 6 5 5 5 4 4 3 2 4 3 3 4 4 4
5 5 6 6 6 7 7 7 5 7 7 6 6 6 6 5 5 6 7 6 6 5 5 5 5 3 3 3 5 5 4 5 3 4 5 7 7 7 5 5 6 3 7 6 4 3 3 6 8 4 5 4 5 4 4 2 3 2 2 2 3 4
7 7 7 8 8 8 8 8 7 7 6 5 7 8 6 7 8 6 6 5 4 3 5 8 8 4 3 1 1 4 4 4 4 4 3 4 4 5 5 6 7 5 1 6 4 6 6 7 3 4 5 2 3 3 5 2 3 2 2 2 2 4
8 8 8 8 9 9 8 6 6 4 6 3 3 4 5 5 6 7 6 6 5 4 5 6 8 7 6 7 8 6 5 4 5 5 5 5 5 6 6 7 8 8 6 1 3 4 6 1 5 4 3 4 1 2 2 2 3 2 2 1 2 4
5 6 6 8 8 5 5 4 3 4 4 4 3 4 4 4 5 7 6 5 5 5 5 5 7 7 6 6 7 7 5 5 6 6 7 7 6 6 5 6 7 6 8 7 4 5 5 1 4 10 5 1 1 1 2 1 2 2 1 1 2 3
4 6 6 4 6 6 7 6 5 4 4 3 2 4 5 5 6 6 6 6 6 5 5 5 6 6 6 6 5 6 6 6 6 5 5 6 7 8 7 7 8 7 8 9 8 4 6 2 4 1 5 5 2 0 2 1 3 1 2 2 2 4
7 6 6 5 5 6 8 8 8 8 8 7 6 7 9 9 7 7 7 5 5 5 5 5 6 6 6 5 6 6 6 6 6 5 5 5 5 4 6 7 7 7 7 5 9 7 7 3 4 2 1 1 2 5 5 4 4 2 2 2 1 2
7 7 7 5 5 2 4 5 8 8 9 8 9 7 5 6 6 5 5 7 6 5 6 6 6 6 6 6 6 6 6 6 5 5 4 5 5 7 7 7 6 6 6 6 6 8 9 6 2 4 2 2 2 1 7 8 4 3 3 1 0 1
5 5 4 4 6 4 3 4 5 6 6 7 8 7 7 6 4 4 6 7 7 7 7 6 6 6 5 6 6 6 6 5 5 6 6 6 6 6 5 4 6 6 5 6 7 8 8 6 9 6 1 2 1 2 6 1 4 8 6 7 2 1
7 4 2 2 5 6 5 4 5 5 5 3 3 3 4 4 5 4 6 6 7 7 7 7 6 6 5 5 5 6 6 6 6 6 5 5 5 5 7 7 7 6 7 6 6 5 7 8 7 7 4 1 4 3 3 1 4 3 4 5 1 3
9 8 7 5 3 4 4 4 5 5 5 4 3 3 4 5 6 5 6 7 7 6 6 6 6 5 6 5 5 6 6 6 6 6 5 6 6 6 6 6 7 8 7 7 5 6 7 6 7 5 5 5 4 3 3 2 2 3 2 1 6 7
5 4 7 8 6 7 7 7 7 8 7 7 6 6 6 6 5 5 6 6 6 7 5 6 5 6 6 5 5 6 6 6 5 5 5 6 7 7 7 7 6 5 7 8 7 6 4 4 5 5 5 6 7 9 8 6 7 5 4 3 5 3
2 2 2 7 8 8 7 7 4 4 2 3 6 5 7 8 6 7 6 6 5 6 6 5 5 5 5 5 6 6 5 5 5 6 7 6 5 5 5 5 5 6 6 6 6 7 5 5 6 5 5 5 6 6 5 6 7 7 7 5 8 7
5 2 2 3 7 5 3 6 4 7 4 1 4 6 7 7 6 7 6 6 6 6 6 6 6 6 6 6 6 5 5 5 4 5 5 5 4 4 5 5 6 6 6 7 7 8 7 7 8 7 6 5 5 6 6 3 5 6 3 5 7 7
7 6 4 6 5 3 8 6 4 6 7 7 7 7 6 7 7 6 5 6 7 6 6 7 7 8 7 5 4 5 5 5 4 4 5 5 5 5 5 6 5 6 7 6 6 7 8 7 7 6 5 6 5 6 5 5 6 6 7 7 6 9
5 4 5 4 1 6 4 4 2 1 4 5 7 7 7 6 6 6 6 6 6 5 6 6 7 7 4 6 5 5 5 5 4 5 4 4 4 4 5 4 4 5 5 5 6 6 6 7 7 6 5 6 6 5 5 6 7 6 7 8 9 8
2 1 3 2 1 1 3 4 3 2 4 3 5 6 5 5 5 5 6 7 6 6 5 6 7 4 4 6 6 6 5 5 4 4 5 5 5 5 5 5 5 5 6 4 6 7 6 7 7 7 6 4 5 5 5 6 6 6 6 6 7 7
4 3 4 2 1 4 6 5 7 7 7 6 7 8 8 7 6 5 5 5 6 5 5 5 6 4 5 5 6 6 6 6 5 5 4 4 4 4 5 5 5 5 6 5 6 7 5 6 6 6 5 6 6 5 5 4 4 5 6 6 7 7
Wind_Direction
160 150 145 146 145 147 163 155 150 148 149 150 148 147 145 148 147 150 148 148 144 134 133 142 141 138 140 137 133 132 134 138 141 138 130 124 121 111 105 96 90 87 86 81 74 86 106 105 104 110 112 112 106 92 100 98 93 89 83 85 90 95
126 123 124 119 108 110 134 150 124 143 140 150 152 150 149 149 148 137 151 139 117 126 127 131 141 141 138 142 140 139 140 143 147 142 136 126 117 112 104 99 95 93 86 78 82 78 102 124 122 114 114 109 98 102 99 100 101 102 98 97 102 114
124 124 122 100 97 85 98 83 110 130 150 155 160 144 126 140 96 109 87 96 101 100 124 136 134 143 145 145 145 142 142 149 151 149 142 130 124 118 109 102 102 96 87 83 78 83 102 117 125 122 113 105 109 105 99 89 90 97 107 111 112 112
125 124 124 116 99 101 97 111 124 132 124 138 140 137 113 111 113 98 106 94 98 124 121 134 156 148 142 143 148 144 148 154 155 148 145 129 128 128 121 112 99 94 76 79 89 101 106 111 109 109 113 113 109 110 103 97 94 96 101 104 111 121
127 142 138 131 131 125 118 128 123 126 124 130 134 139 114 115 121 118 114 111 123 140 133 131 131 120 122 138 127 133 141 132 135 147 128 93 108 103 87 76 76 78 68 79 91 97 108 110 113 115 117 125 125 119 110 96 80 92 109 111 118 119
143 143 131 116 118 131 126 120 118 128 112 112 134 138 123 127 132 133 128 133 132 129 116 111 119 124 124 135 134 138 136 135 130 130 97 108 91 102 97 91 100 96 86 85 91 92 106 123 120 115 121 124 128 121 110 99 83 74 83 115 125 124
137 141 137 130 125 117 121 117 118 132 130 143 154 148 152 155 160 146 143 145 142 141 140 139 148 149 148 155 148 148 146 148 145 133 126 135 159 113 111 115 104 101 106 100 88 89 106 115 122 124 122 125 122 120 118 119 113 109 106 111 125 126
149 149 150 145 140 137 141 141 159 177 164 175 158 161 159 161 155 155 156 158 149 151 153 155 161 160 163 165 164 153 144 149 154 149 147 165 177 99 73 91 110 97 105 103 97 101 115 123 126 128 125 122 121 120 117 116 117 113 113 113 122 133
154 153 152 146 150 147 153 154 166 165 166 186 161 161 158 156 161 167 165 163 157 153 156 157 167 169 159 172 160 155 161 166 161 165 156 194 182 166 195 155 146 104 108 103 112 124 128 127 129 131 128 129 129 127 126 120 120 120 109 109 109 130
154 158 155 151 159 159 166 166 173 169 169 180 165 152 157 166 171 171 173 176 172 164 168 167 167 165 167 172 175 168 167 171 170 169 169 183 200 183 203 200 132 102 112 126 133 142 131 131 132 134 135 134 138 139 132 131 127 125 121 110 122 137
152 158 160 169 169 172 174 180 175 166 174 169 158 155 164 169 175 184 181 180 178 171 164 164 164 166 170 166 179 174 185 180 175 177 181 191 179 194 197 196 143 122 128 141 146 140 135 138 139 139 142 138 141 132 132 127 120 122 112 100 97 122
161 158 164 177 173 172 182 182 170 164 172 160 155 164 168 171 185 188 184 182 180 173 166 169 168 168 168 167 177 187 186 184 199 189 190 191 187 196 187 129 94 113 132 140 140 129 130 136 133 122 118 121 125 129 129 130 130 126 115 108 105 100
163 161 172 185 180 173 173 175 169 173 168 162 164 164 173 183 185 188 184 184 180 174 173 171 175 173 169 171 173 183 191 202 206 196 192 190 154 155 112 101 97 107 123 129 128 111 99 111 129 122 117 115 121 125 130 131 130 123 116 118 110 109
166 169 184 189 173 165 171 172 165 162 166 166 172 172 180 183 183 182 181 184 180 182 179 178 171 172 166 170 174 183 189 205 208 202 193 170 156 156 132 119 132 132 149 150 154 145 133 125 110 115 117 120 113 126 130 130 134 128 122 119 116 102
174 182 187 182 164 156 157 167 161 161 171 174 170 175 176 176 181 179 178 185 187 187 183 179 177 168 170 174 178 183 189 197 185 171 161 167 153 149 140 143 143 130 123 114 133 149 142 128 135 131 124 120 125 126 127 134 125 125 121 115 108 107
186 187 182 162 151 154 161 160 144 152 137 152 160 181 181 184 180 178 184 185 190 191 184 180 177 173 169 179 184 181 189 165 152 125 129 139 131 139 141 136 147 142 125 133 140 115 86 113 110 110 106 111 120 128 130 134 137 131 122 116 118 120
202 193 158 153 144 138 138 143 147 146 145 150 167 185 191 175 178 189 190 190 190 192 186 181 180 179 174 171 117 63 349 317 121 119 117 113 108 111 132 132 120 155 149 149 146 123 106 112 113 105 112 113 117 130 136 143 139 133 123 127 135 125
244 90 144 155 144 133 134 134 141 142 151 153 162 179 186 183 195 196 195 195 192 193 189 181 177 173 153 121 121 171 143 249 103 117 111 102 116 128 89 90 134 88 106 135 142 146 136 119 110 112 109 109 112 116 127 123 133 137 135 141 136 142
313 163 139 137 126 121 122 125 124 146 157 156 156 164 175 184 189 180 226 202 192 198 166 126 182 175 162 157 151 153 135 147 162 142 124 114 120 122 113 50 188 115 81 60 141 144 134 122 114 108 104 107 115 113 112 120 109 132 143 139 146 148
213 185 154 128 128 123 131 145 167 163 175 184 168 167 178 190 190 203 205 209 198 194 151 127 189 149 174 149 146 145 148 152 199 150 134 127 136 157 159 149 174 131 122 98 68 109 124 119 100 92 83 77 84 107 101 87 104 121 125 147 148 139
203 198 172 152 157 154 162 166 176 185 192 185 183 176 172 180 206 209 195 201 207 194 143 136 168 130 169 167 139 138 153 160 170 157 149 152 154 173 161 147 136 124 133 128 126 135 129 128 120 88 73 66 54 38 72 68 73 66 104 115 136 133
197 196 190 178 175 179 184 188 180 190 184 172 182 189 178 179 195 198 198 208 209 168 143 153 154 175 125 93 71 142 197 167 163 149 154 136 140 160 155 144 136 120 126 148 144 159 160 133 130 153 139 105 40 55 79 82 117 79 70 76 89 101
204 198 195 187 182 189 188 181 181 174 180 165 186 183 175 172 179 183 196 190 181 158 141 156 151 170 175 180 183 182 179 169 164 154 147 149 152 168 169 157 157 146 137 110 107 162 176 178 133 126 101 90 111 81 64 79 56 64 96 64 50 77
265 236 209 197 193 180 165 150 138 125 161 163 170 169 167 167 178 178 186 162 165 150 137 140 155 169 180 189 179 176 166 170 176 181 165 158 162 175 168 166 155 150 145 147 154 178 199 224 154 140 148 135 136 78 94 317 119 48 32 86 98 95
257 278 272 231 183 155 146 139 136 111 125 117 128 168 169 195 188 184 177 152 161 153 152 144 169 181 184 186 178 169 166 172 180 183 171 164 171 179 179 173 166 154 172 160 164 164 195 191 199 265 134 132 84 33 225 127 108 38 57 102 122 142
210 221 244 249 207 165 165 161 160 162 167 178 190 188 194 190 184 183 176 142 143 155 141 168 199 190 187 174 174 170 167 170 180 176 178 177 167 167 179 170 175 171 175 184 162 161 180 211 219 231 340 62 138 168 163 166 138 201 32 1 329 128
236 212 214 221 224 209 166 170 175 182 184 190 200 209 199 193 190 175 137 144 149 138 169 186 197 195 185 177 170 169 171 179 176 172 171 163 180 191 187 181 167 172 185 164 157 166 178 180 177 262 275 347 30 89 140 145 181 74 155 204 349 163
264 261 234 192 201 209 195 173 185 194 196 200 207 206 191 191 171 154 148 144 144 161 178 193 207 198 185 172 169 171 176 177 172 179 180 185 189 194 186 175 173 172 167 175 171 171 175 170 175 201 179 240 54 138 168 110 153 169 157 158 153 10
328 321 320 248 201 201 192 174 183 197 213 220 213 206 185 178 173 157 152 141 150 158 184 196 200 193 189 172 172 179 182 181 179 181 189 191 186 186 188 176 168 167 178 182 183 180 173 181 183 188 150 107 99 114 126 58 131 109 139 145 105 167
335 342 327 294 257 223 206 161 173 193 199 193 182 183 180 175 179 172 162 151 158 168 174 190 198 200 192 178 174 185 189 183 183 178 186 189 182 186 192 187 185 183 179 179 182 177 188 185 190 168 169 145 120 109 95 91 138 132 55 62 162 176
219 216 264 271 250 233 214 204 188 184 188 179 179 177 180 183 172 168 175 163 158 172 180 186 188 200 195 177 180 192 188 185 174 174 183 182 188 189 190 188 185 183 184 181 176 180 186 183 178 170 167 165 159 166 169 170 178 185 157 142 92 104
200 165 239 275 248 227 226 231 206 152 168 153 160 182 191 188 184 172 181 170 166 161 179 182 190 195 191 179 181 192 192 186 166 171 191 189 186 189 182 177 178 187 189 184 172 174 177 176 180 185 182 180 175 178 178 170 176 169 164 168 157 156
289 46 27 337 263 255 359 326 343 74 87 161 227 197 197 197 190 189 179 176 169 175 167 180 196 200 199 182 182 178 192 193 172 185 193 184 185 183 178 181 188 192 183 180 179 176 178 186 181 183 191 187 179 184 191 178 154 157 132 130 138 134
355 4 5 19 60 128 229 213 176 156 164 168 194 213 199 199 197 191 184 183 180 181 183 191 195 210 196 176 173 185 195 197 181 183 197 197 183 182 182 188 191 192 189 185 172 180 184 179 181 191 165 167 186 191 182 166 160 144 147 136 150 153
325 6 14 35 183 200 242 2 26 37 199 198 190 200 197 207 197 190 188 187 185 183 189 198 205 215 174 170 175 187 208 203 189 189 200 199 180 177 184 186 192 192 183 177 180 174 180 174 181 182 176 180 179 179 173 171 162 170 161 165 155 157
249 179 83 73 72 351 12 5 16 307 279 241 219 189 183 199 208 200 191 191 186 185 193 201 221 199 183 175 169 187 201 205 185 185 195 190 178 178 180 185 182 179 183 175 174 179 183 181 188 183 179 167 160 189 175 173 176 168 170 162 156 158
247 181 160 166 222 162 161 174 222 217 203 223 214 188 182 182 192 196 194 195 186 182 183 207 218 194 193 186 177 186 195 201 188 183 183 184 174 172 173 181 183 177 179 176 175 186 173 183 192 179 173 172 179 174 183 173 166 163 160 154 165 166